Flag for U.S.A. Weather past 2 weeks in Bellingham, Washington, U.S.A.

Now
42 °F

Passing clouds.


Feels Like: 38 °F
Forecast: 38 / 42 °F
Wind: 6 mph from West

Location: Bellingham International Airport

Current Time: Dec 28, 2014 at 2:15:55 AM

Latest Report: Dec 28, 2014 at 1:53 AM


Visibility: 10 mi

Pressure: 30.10 "Hg

Humidity: 76%

Dew point: 35 °F

Location of BellinghamLocation

Historic Weather in Bellingham — Graph

°F

Bellingham temperature yesterday

Maximum temperature yesterday: 49 °F (at 2:53 PM)
Minimum temperature yesterday: 37 °F (at 12:53 AM)
Average temperature yesterday: 42 °F

Past Weeks' High & Low Weather Summary

 TemperatureHumidityPressure
High56 °F (Dec 20, 10:53 PM)97% (Dec 25, 7:53 PM)30.40 "Hg (Dec 25, 7:53 PM)
Low30 °F (Dec 15, 6:53 AM)46% (Dec 15, 1:53 PM)29.36 "Hg (Dec 20, 5:53 PM)
Average44 °F80%30.02 "Hg
* Reported Dec 13 12:53 AM — Dec 28 12:53 AM, Bellingham, Weather by CustomWeather, © 2014

Note: Actual official high and low records may vary slightly from our data, if they occured in-between our weather recording intervals... More about our weather records

Advertising

Bellingham weather history for previous 24 hours

 ConditionsComfort  
Time TempWeatherWind HumidityBarometerVisibility
12:53 AM
Dec 28
43 °FOvercast.5 mph76%30.08 "Hg10 mi
11:53 PM
Dec 27
44 °FMostly cloudy.8 mph73%30.08 "Hg10 mi
10:53 PM44 °FMostly cloudy.8 mph76%30.06 "Hg10 mi
9:53 PM43 °FMostly cloudy.No wind79%30.06 "Hg10 mi
8:53 PM43 °FMostly cloudy.No wind82%30.04 "Hg10 mi
7:53 PM40 °FPassing clouds.3 mph89%30.03 "Hg10 mi
6:53 PM43 °FPartly cloudy.3 mph82%30.02 "Hg10 mi
5:53 PM45 °FOvercast.6 mph80%30.02 "Hg10 mi
4:53 PM43 °FOvercast.No wind89%30.03 "Hg10 mi
3:53 PM46 °FSunny.No wind73%30.03 "Hg10 mi
2:53 PM49 °FMostly cloudy.6 mph71%30.02 "Hg10 mi
1:53 PM47 °FMostly cloudy.13 mph83%30.01 "Hg10 mi
12:58 PM45 °FLight rain. Cloudy.13 mph93%29.97 "Hg9 mi
11:53 AM45 °FMostly cloudy.10 mph86%30.04 "Hg10 mi
10:53 AM45 °FLight rain. Mostly cloudy.9 mph86%30.07 "Hg10 mi
9:53 AM45 °FLight rain. Cloudy.14 mph82%30.08 "Hg10 mi
8:53 AM44 °FLight rain. Fog.9 mph85%30.09 "Hg5 mi
7:53 AM39 °FLight rain. Fog.No wind96%30.10 "Hg5 mi
6:53 AM39 °FLight rain. Fog.No wind93%30.14 "Hg4 mi
5:53 AM38 °FLight rain. Fog.No wind93%30.18 "Hg5 mi
4:53 AM38 °FLight rain. Fog.No wind93%30.22 "Hg5 mi
3:53 AM38 °FLight rain. Mostly cloudy.5 mph93%30.25 "Hg7 mi
2:53 AM38 °FLight rain. Fog.No wind93%30.29 "Hg4 mi
Weather by CustomWeather, © 2014

See weather overviewHow to use our weather pages